Location: Helsinki
(60.1699°N, 24.9384°E)
Time: 23:58:35
(UTC+02:00)

A-11 Canister half - Pass Details

Date: 04 November 2020
Orbit: 1516 x 1684 km, 47.2° (Epoch: 26 November)

Event Time Altitude Azimuth Distance (km) Brightness Sun altitude
Rises 20:00:39 0° 232° (SW) 4,934 12.1 -27.9°
Reaches altitude 10° 20:04:09 10° 225° (SW) 3,944 11.4 -28.3°
Maximum altitude 20:12:58 36° 164° (SSE) 2,436 9.7 -29.4°
Enters shadow 20:13:05 36° 163° (SSE) 2,436 9.7 -29.4°
Drops below altitude 10° 20:21:36 10° 103° (ESE) 3,874 - -30.4°
Sets 20:25:01 0° 96° (E) 4,838 - -30.7°
